TimeCST,TemperatureF,Dew PointF,Humidity,Sea Level PressureIn,VisibilityMPH,Wind Direction,Wind SpeedMPH,Gust SpeedMPH,PrecipitationIn,Events,Conditions,WindDirDegrees,DateUTC
6:00 AM,73,72,94,29.83,2,SSW,2.3,,,Rain,Light Rain,200,2011-10-13 12:00:00
6:00 AM,73.4,71.6,94,29.86,6.2,SSW,2.3,-,N/A,Rain,Rain,200,2011-10-13 12:00:00
7:00 AM,73.4,71.6,94,29.86,6.2,SSW,5.8,-,N/A,Rain,Rain,210,2011-10-13 13:00:00
8:00 AM,75.2,73.4,94,29.88,6.2,SW,6.9,-,N/A,Rain,Light Rain,230,2011-10-13 14:00:00
8:30 AM,75.2,73.4,94,29.88,1.9,WSW,9.2,-,N/A,Rain,Rain,250,2011-10-13 14:30:00
9:00 AM,77,74,87,29.86,6,WSW,9.2,,,Rain,Light Rain,250,2011-10-13 15:00:00
9:00 AM,77.0,73.4,89,29.89,6.2,WSW,9.2,-,N/A,Rain,Light Rain,250,2011-10-13 15:00:00
10:00 AM,78.8,73.4,83,29.88,6.2,West,11.5,-,N/A,Rain,Light Rain,260,2011-10-13 16:00:00
11:00 AM,80.6,73.4,79,29.86,6.2,West,12.7,-,N/A,Rain,Light Rain,270,2011-10-13 17:00:00
12:00 PM,80,74,77,29.84,6,West,12.7,,,Rain,Light Rain,260,2011-10-13 18:00:00
12:00 PM,80.6,73.4,79,29.84,6.2,West,12.7,-,N/A,Rain,Light Rain,260,2011-10-13 18:00:00
1:00 PM,80.6,73.4,79,29.82,6.2,WSW,12.7,-,N/A,Rain,Light Rain,250,2011-10-13 19:00:00
1:05 PM,75.2,71.6,89,29.82,3.1,West,15.0,-,N/A,Rain,Rain,260,2011-10-13 19:05:00
2:00 PM,77.0,73.4,89,29.80,5.0,West,12.7,-,N/A,Rain,Rain,260,2011-10-13 20:00:00
3:00 PM,76,73,89,29.77,6,West,15.0,,,Rain,Light Rain,260,2011-10-13 21:00:00
3:00 PM,75.2,73.4,94,29.78,5.6,West,15.0,-,N/A,Rain,Rain,260,2011-10-13 21:00:00
4:00 PM,77.0,73.4,89,29.77,1.9,West,9.2,-,N/A,Rain,Rain,260,2011-10-13 22:00:00
5:00 PM,77.0,73.4,89,29.77,6.2,WSW,5.8,-,N/A,Rain,Light Rain,240,2011-10-13 23:00:00
6:00 PM,76,73,88,29.75,6,SW,6.9,,,Rain,Light Rain,230,2011-10-14 00:00:00
6:00 PM,75.2,73.4,94,29.78,6.2,SW,6.9,-,N/A,Rain,Light Rain,230,2011-10-14 00:00:00
7:00 PM,75.2,73.4,94,29.81,6.2,SW,5.8,-,N/A,Rain,Light Rain,230,2011-10-14 01:00:00
8:00 PM,75.2,73.4,94,29.83,6.2,SW,4.6,-,N/A,,Scattered Clouds,220,2011-10-14 02:00:00